RH
43 44 44 45 45 45 45 45 46 46 46 45 44 44 44 43 42 41 40 40 38 36 33 31 28 25 23 21 20 19 19 19 19 20 21 21 22 23 24 25 26 26 27 27 27 27 27 27 27 27 27 27 27 27 27 27 27 27 27 27 27 27 27 27 26 26 26 25 25
43 43 44 44 44 45 45 45 45 46 46 45 45 45 44 43 40 39 37 36 34 32 30 28 26 24 22 21 20 20 20 20 20 21 22 22 23 24 24 25 25 26 27 27 27 27 27 26 26 26 26 26 26 26 26 27 27 27 27 27 27 27 27 27 27 26 26 26 25
45 45 45 45 46 46 46 46 46 46 45 45 46 45 44 41 38 36 34 32 31 29 27 26 25 24 23 23 22 22 22 22 22 23 23 23 23 24 24 25 25 26 26 27 27 27 27 27 26 26 27 26 27 27 27 27 27 28 28 28 28 28 28 27 27 27 26 26 26
47 47 47 47 48 48 48 48 47 47 46 46 46 45 43 40 37 34 32 30 29 27 27 26 26 26 25 25 24 24 23 23 23 23 23 23 23 24 24 24 25 25 26 26 27 27 27 27 28 28 28 28 29 29 29 29 29 29 29 29 29 29 29 29 28 28 28 27 27
47 47 47 47 47 47 47 47 46 46 46 46 45 44 41 39 36 33 31 30 28 28 27 27 27 27 27 26 26 25 24 24 24 23 23 23 23 24 24 25 25 26 26 27 27 28 28 29 30 30 30 31 31 31 31 31 31 31 31 31 31 31 30 30 30 29 29 29 29
42 42 41 41 41 41 41 42 41 41 41 41 40 38 36 35 33 31 30 28 28 27 27 27 27 27 27 26 26 25 24 23 23 23 23 23 24 24 25 26 26 27 28 28 29 29 30 31 32 32 32 33 33 33 33 33 33 33 33 32 32 32 31 31 31 30 30 30 29
34 34 33 33 33 33 33 33 33 33 33 33 32 31 30 29 28 27 27 26 26 26 26 26 26 26 25 25 24 24 24 23 23 24 24 24 25 26 26 27 28 28 29 29 30 31 31 32 32 33 33 34 34 34 34 34 34 33 33 32 32 32 31 31 30 30 30 30 29
31 30 30 29 28 28 27 27 27 27 27 27 27 27 26 26 26 26 25 25 26 26 26 26 26 25 25 25 25 25 25 25 25 26 26 27 27 28 29 29 30 30 31 31 31 32 32 33 33 34 34 34 34 33 33 33 32 32 31 31 30 29 29 29 28 28 28 28 28
32 31 30 29 28 27 27 27 26 26 26 27 27 27 27 27 27 27 27 27 27 27 27 27 27 27 27 26 27 27 27 28 28 28 28 29 30 30 30 31 31 32 32 32 33 33 33 33 34 33 33 33 32 31 30 29 28 28 27 26 26 25 25 25 25 25 25 25 26
32 32 31 31 30 30 29 28 28 28 29 29 29 30 30 30 30 30 30 30 29 29 29 29 29 29 29 29 29 29 29 30 30 30 30 30 31 31 31 32 32 32 32 32 32 32 32 31 31 30 29 28 27 26 25 24 24 23 23 22 22 22 21 22 22 22 22 22 22
33 33 33 32 32 32 32 31 31 31 31 32 32 32 32 33 33 32 32 31 31 31 31 31 31 31 30 30 30 30 30 30 30 30 30 30 30 30 30 30 30 30 30 29 29 28 27 27 26 25 24 23 22 21 21 20 19 19 19 18 18 18 18 18 18 18 18 18 18
36 35 35 35 35 34 34 34 34 34 34 34 34 34 34 34 34 34 33 33 32 32 32 32 31 31 30 30 30 30 30 29 29 29 29 28 28 28 28 27 27 26 26 25 24 23 22 21 20 20 19 18 18 17 17 16 16 16 16 16 16 16 16 16 16 15 15 15 15
36 36 36 36 36 36 36 36 36 36 36 36 36 35 35 35 34 34 33 33 32 32 32 31 30 30 29 29 29 28 28 28 27 27 26 26 25 24 24 23 22 21 20 20 19 18 17 16 16 16 15 15 15 15 14 15 15 15 15 15 15 15 15 15 14 14 14 14 14
33 34 34 34 34 34 34 34 34 34 34 34 34 33 33 33 32 32 31 30 30 30 29 28 28 27 27 26 26 25 25 24 23 23 22 21 20 20 19 18 17 16 16 15 14 14 14 13 13 13 14 14 14 14 15 15 15 15 16 16 15 15 15 15 15 15 14 14 13
28 29 29 29 29 29 29 29 29 29 29 29 29 28 28 27 27 27 26 26 26 25 25 25 24 24 23 23 22 22 21 21 20 19 18 18 17 16 15 15 14 14 13 13 13 13 13 14 14 14 15 15 15 16 16 17 17 17 17 17 16 16 16 16 16 15 15 15 14
24 24 25 25 25 25 24 24 24 23 23 23 23 22 22 22 22 22 21 21 21 21 21 21 21 21 21 20 20 20 20 19 18 17 17 16 15 15 14 14 14 13 13 14 14 15 15 15 16 16 17 17 17 18 18 18 18 18 18 18 17 17 17 17 17 16 16 16 16
22 22 22 22 22 22 22 21 21 20 20 19 19 19 19 19 18 18 18 18 18 19 19 19 19 19 19 19 19 19 18 18 17 16 16 15 15 15 14 14 14 14 15 15 16 17 17 18 18 19 19 19 19 20 20 20 20 19 19 19 19 19 19 18 18 18 18 18 17
22 22 22 22 22 22 21 21 20 19 19 18 18 18 17 17 17 17 17 17 17 18 18 18 18 18 18 18 18 18 18 17 17 16 16 16 15 15 15 15 16 16 17 18 18 19 20 20 21 21 21 22 22 22 22 21 21 21 21 21 21 21 20 20 20 20 20 20 19
21 21 21 21 22 21 21 21 21 20 19 18 18 17 17 17 17 17 17 17 17 17 17 17 18 18 18 18 18 18 18 17 17 17 17 16 16 16 17 17 18 19 19 20 21 22 22 23 23 23 24 23 23 23 23 23 23 23 23 23 23 22 22 22 22 22 22 22 22
21 21 21 21 22 22 22 22 21 21 20 19 18 18 17 17 17 16 16 16 17 17 17 17 18 18 18 19 19 19 18 18 18 18 18 18 18 19 19 20 20 21 22 23 24 24 24 25 25 25 25 25 24 24 24 24 24 24 24 24 24 24 24 24 24 25 25 25 25
22 22 22 22 22 22 23 22 22 21 21 20 19 18 17 17 16 16 16 16 16 17 17 18 18 19 19 19 20 19 19 19 19 19 19 20 20 21 21 22 22 23 24 25 25 25 26 26 26 25 25 25 25 25 25 25 25 25 25 25 25 25 25 26 26 26 27 27 27
24 24 24 24 24 24 24 24 23 23 22 20 20 19 18 17 16 16 16 16 17 17 18 19 19 20 21 21 21 21 21 21 21 21 21 21 22 22 23 23 24 25 25 26 26 26 26 26 26 26 25 25 25 25 25 25 25 25 25 25 26 26 26 26 27 27 27 28 28
27 27 28 28 28 28 27 26 26 25 24 23 21 20 19 18 17 17 17 17 18 19 19 20 21 22 23 23 23 23 23 23 23 23 23 23 23 24 24 25 25 25 26 26 26 26 26 26 25 25 25 25 25 25 25 25 25 25 25 26 26 26 26 26 26 27 27 27 28
29 29 30 30 31 31 31 30 29 28 27 26 25 24 22 21 20 20 19 20 20 21 22 23 24 25 26 26 26 26 26 26 26 26 26 26 26 26 26 26 27 27 27 27 26 26 26 25 25 25 25 25 25 25 25 25 25 26 26 26 26 26 26 26 26 26 26 27 27
32 31 31 31 32 33 33 33 33 32 31 31 30 28 26 25 24 23 23 23 24 25 25 26 27 28 29 30 30 30 30 30 30 30 30 29 29 29 29 29 29 29 29 28 28 27 27 26 26 26 26 26 26 26 26 26 26 26 26 26 26 26 26 26 26 26 26 27 27
36 35 34 33 33 34 35 35 35 35 35 35 34 32 31 29 28 27 27 27 27 28 29 29 30 31 32 32 33 33 33 33 33 33 33 33 33 33 32 32 32 32 31 31 30 30 29 28 28 28 28 27 27 27 27 27 27 27 27 27 27 27 27 27 27 27 27 27 28
40 39 39 37 37 37 37 36 37 37 38 38 38 37 35 34 32 31 30 31 31 31 32 32 33 33 34 34 34 35 35 35 35 35 35 35 35 35 35 35 35 34 34 34 33 33 33 32 32 31 31 30 29 29 29 28 28 27 27 27 27 27 28 28 28 29 29 29 29
43 43 42 41 41 41 40 39 39 39 40 41 41 40 39 38 36 35 35 34 34 34 34 35 35 35 35 36 36 36 37 37 37 37 37 37 37 37 37 37 37 37 37 37 37 37 37 36 35 35 34 32 32 31 29 28 28 27 27 28 28 29 29 30 30 30 30 30 30
44 44 44 44 44 44 44 43 43 42 42 43 44 44 43 42 41 40 39 38 38 38 38 38 38 38 38 38 38 38 39 39 39 39 39 39 39 39 39 39 39 39 39 40 40 40 39 39 39 38 36 35 33 31 30 29 29 29 29 29 30 30 30 30 30 30 30 29 29
45 45 45 45 45 46 46 46 45 45 45 45 46 47 47 46 45 44 43 43 42 42 42 41 41 41 41 41 41 41 42 42 42 43 43 43 43 43 43 43 42 42 42 42 42 42 41 41 40 39 38 36 34 33 33 32 32 32 32 31 31 30 29 29 28 28 27 27 27
45 45 45 46 46 47 47 48 48 48 48 48 49 50 50 50 50 49 48 47 47 46 45 44 44 44 44 44 45 45 46 46 47 47 48 48 48 47 47 46 45 45 44 44 44 44 43 42 42 41 40 39 38 38 37 37 36 35 34 32 30 29 28 27 26 26 26 26 26
47 47 47 47 47 47 48 49 49 50 50 50 52 53 53 54 53 53 52 51 50 49 49 48 48 48 48 48 49 50 51 52 52 53 53 53 52 52 51 50 48 47 47 46 45 44 43 43 43 43 43 43 43 43 42 41 39 37 35 33 31 30 29 28 27 27 26 26 26
50 50 49 49 49 49 50 50 51 51 51 52 54 55 56 57 56 56 55 54 53 52 52 51 51 51 52 53 54 55 56 57 57 57 57 56 56 55 54 53 52 50 49 48 47 46 45 44 44 45 45 45 45 44 43 42 40 39 37 36 34 33 32 30 29 29 28 27 27
53 53 52 51 51 51 51 52 52 52 52 54 56 57 58 59 58 58 57 57 56 56 55 55 55 55 55 56 58 59 60 60 60 59 59 58 57 57 56 55 54 52 51 50 50 49 48 47 47 46 45 44 43 42 42 42 42 41 40 39 38 37 35 34 33 32 31 30 30
56 55 54 54 54 54 54 54 53 53 54 55 57 58 60 60 60 60 59 59 59 59 58 58 58 58 58 59 60 61 61 61 61 60 59 59 58 58 57 56 55 54 53 53 52 52 51 50 48 46 44 42 41 41 40 41 41 42 42 42 41 40 39 38 37 36 36 35 34
60 58 57 56 56 57 57 56 56 55 55 56 58 59 60 61 61 61 61 62 62 62 62 61 61 61 61 61 62 62 62 62 61 61 60 60 59 58 57 57 56 55 55 54 54 53 52 50 48 47 45 44 42 41 40 40 40 40 41 42 43 43 43 43 42 41 41 40 40
64 62 60 59 59 59 59 58 58 58 58 59 60 60 60 61 62 62 63 64 64 65 64 63 63 62 62 63 63 63 63 62 62 62 61 60 59 58 58 57 57 57 56 55 53 52 51 49 48 47 46 45 44 43 41 40 40 40 40 42 43 44 45 46 46 45 45 45 44
66 64 63 62 61 61 61 60 60 61 61 62 62 61 61 61 62 63 64 65 65 65 65 64 63 63 64 64 64 64 64 63 63 62 61 60 59 59 58 58 57 56 55 54 52 51 50 49 48 48 47 46 45 44 43 42 42 42 42 42 43 44 46 46 47 47 47 47 46
68 66 65 64 63 63 63 62 63 63 64 65 64 63 62 62 63 64 65 65 65 65 65 65 65 65 65 66 66 65 65 64 63 62 61 60 59 59 58 57 56 55 53 51 51 50 49 48 48 47 46 46 45 45 45 45 45 45 44 44 44 44 45 45 46 47 47 47 47
69 68 66 65 65 64 64 64 65 66 66 66 65 65 64 63 64 65 66 66 66 66 66 66 66 67 67 67 66 65 64 63 62 62 61 60 60 58 57 56 54 53 51 50 49 49 48 48 48 47 47 46 46 46 46 47 46 46 46 45 44 44 44 45 45 46 46 46 46
69 68 67 66 66 66 66 66 67 67 67 67 67 66 66 66 67 68 68 69 68 68 68 68 68 68 67 66 66 65 64 63 62 62 61 60 59 57 56 54 53 52 51 49 49 48 48 48 48 48 48 47 47 47 47 47 47 47 46 46 45 44 44 44 44 44 45 45 45